Tracking 19572 objects as of 23-Feb-2019
HD Live streaming from Space Station
objects crossing your sky now

SBS 3

Track SBS 3 now!
SBS 3 is classified as:


NORAD ID: 13651
Int'l Code: 1982-110B
Perigee: 35,844.4 km
Apogee: 35,930.0 km
Inclination: 15.0 °
Period: 1,440.9 minutes
Semi major axis: 42258 km
RCS: 15.8489 m2 (large)
Launch date: November 11, 1982
Source: United States (US)
Launch site: AIR FORCE EASTERN TEST RANGE (AFETR)
aabbcc
Your satellite tracking list
Your tracking list is empty




NASA's NSSDC Master Catalog

Two Line Element Set (TLE):
1 13651U 82110B   19053.61981361 -.00000304 +00000-0 +00000-0 0  9999
2 13651 014.9877 356.3935 0010136 013.2695 153.7369 00.99939389019840
Source of the keplerian elements: AFSPC